Weather History for Antwerp, Belgium

Change the Weather History Date:

Wednesday, December 19, 2012

  Actual Average Record
Temperature  
Mean Temperature 40 °F -  
Max Temperature 45 °F 42 °F 51 °F (1997)
Min Temperature 35 °F 33 °F 24 °F (2002)
Degree Days  
Heating Degree Days 25    
Moisture  
Dew Point 39 °F    
Average Humidity 94    
Maximum Humidity 100    
Minimum Humidity 87    
Precipitation  
Precipitation 0.00 in - - ()
Sea Level Pressure  
Sea Level Pressure 30.15 in    
Wind  
Wind Speed 4 mph ()    
Max Wind Speed 9 mph    
Max Gust Speed -    
Visibility 2.0 miles    
Events Fog    
Averages and records for this station are not official NWS values.
T = Trace of Precipitation, MM = Missing Value Source: Averaged Metar Reports

Daily Weather History Graph

Daily Weather History Graph

Search for Another Location

Airport:

Trip Planner

Search our weather history database for the weather conditions in past years. The results will help you decide how hot, cold, wet, or windy it might be!

Date:

Astronomy

Dec. 19, 2012 Rise Set
Actual Time 8:42 AM CET 4:36 PM CET
Civil Twilight 8:02 AM CET 5:15 PM CET
Nautical Twilight 7:20 AM CET 5:58 PM CET
Astronomical Twilight 6:39 AM CET 6:39 PM CET
Moon 12:01 PM CET (12/19) No Moon Set
Length of Visible Light 9h 12m
Length of Day
7h 53m
Waxing Crescent, 42% of the Moon is Illuminated
Dec 19
Waxing Crescent
Dec 20
First Quarter
Dec 28
Full
Jan 5
Last Quarter
Jan 11
New

Hourly Weather History & Observations

Time (CET) Temp. Windchill Dew Point Humidity Pressure Visibility Wind Dir Wind Speed Gust Speed Precip Events Conditions
12:20 AM 42.8 °F 40.1 °F 41.0 °F 93% 30.12 in 3.1 mi West 4.6 mph - N/A   Unknown
12:50 AM 42.8 °F 40.1 °F 41.0 °F 93% 30.12 in 3.1 mi West 4.6 mph - N/A   Unknown
1:00 AM 43 °F - 41 °F 89% 30.14 in 3 mi West 4.5 mph - -   Mist
1:20 AM 42.8 °F 41.1 °F 41.0 °F 93% 30.12 in 3.7 mi West 3.5 mph - N/A   Unknown
1:50 AM 42.8 °F - 41.0 °F 93% 30.12 in 3.1 mi South 2.3 mph - N/A   Unknown
2:20 AM 42.8 °F - 41.0 °F 93% 30.12 in 1.7 mi South 2.3 mph - N/A   Mist
2:50 AM 42.8 °F - 41.0 °F 93% 30.12 in 1.5 mi South 2.3 mph - N/A   Mist
3:20 AM 41.0 °F - 39.2 °F 93% 30.12 in 1.2 mi South 2.3 mph - N/A   Mist
3:50 AM 41.0 °F - 39.2 °F 93% 30.12 in 1.4 mi South 2.3 mph - N/A   Unknown
4:00 AM 42 °F - 40 °F 90% 30.15 in 1 mi South 2.2 mph - - Fog Fog
4:20 AM 39.2 °F - 39.2 °F 100% 30.12 in - Variable 2.3 mph - N/A Fog Fog
4:50 AM 39.2 °F - 39.2 °F 100% 30.15 in 1.0 mi South 1.2 mph - N/A   Unknown
5:20 AM 39.2 °F 37.0 °F 39.2 °F 100% 30.15 in 0.9 mi South 3.5 mph - N/A   Overcast
5:50 AM 41.0 °F - 39.2 °F 93% 30.15 in 0.8 mi Variable 2.3 mph - N/A   Overcast
6:20 AM 39.2 °F 37.0 °F 39.2 °F 100% 30.15 in 1.0 mi SE 3.5 mph - N/A   Overcast
6:50 AM 41.0 °F 39.0 °F 41.0 °F 100% 30.15 in 1.1 mi South 3.5 mph - N/A   Mostly Cloudy
7:00 AM 41 °F - 40 °F 96% 30.17 in 1 mi South 4.5 mph - -   Mist
7:20 AM 41.0 °F 39.0 °F 41.0 °F 100% 30.15 in 1.1 mi South 3.5 mph - N/A   Mostly Cloudy
7:50 AM 41.0 °F - 39.2 °F 93% 30.18 in 1.1 mi South 2.3 mph - N/A   Mostly Cloudy
8:20 AM 41.0 °F - 41.0 °F 100% 30.18 in 0.8 mi Variable 2.3 mph - N/A   Mostly Cloudy
8:50 AM 41.0 °F 39.0 °F 41.0 °F 100% 30.18 in 0.4 mi SE 3.5 mph - N/A Fog Fog
9:20 AM 41.0 °F 39.0 °F 39.2 °F 93% 30.18 in 0.2 mi ESE 3.5 mph - N/A Fog Fog
9:50 AM 41.0 °F 39.0 °F 41.0 °F 100% 30.18 in 0.2 mi SE 3.5 mph - N/A Fog Fog
10:00 AM 41 °F - 40 °F 97% 30.20 in 0 mi SE 2.2 mph - - Fog Partial Fog
10:20 AM 41.0 °F 39.0 °F 41.0 °F 100% 30.18 in 0.2 mi ESE 3.5 mph - N/A Fog Fog
10:50 AM 42.8 °F 41.1 °F 41.0 °F 93% 30.18 in 0.7 mi SSE 3.5 mph - N/A   Mostly Cloudy
11:20 AM 42.8 °F 40.1 °F 41.0 °F 93% 30.18 in 1.1 mi SSE 4.6 mph - N/A   Mostly Cloudy
11:50 AM 42.8 °F 40.1 °F 41.0 °F 93% 30.18 in 1.4 mi SE 4.6 mph - N/A   Mostly Cloudy
12:20 PM 42.8 °F 39.3 °F 41.0 °F 93% 30.18 in 1.6 mi SSE 5.8 mph - N/A   Mostly Cloudy
12:50 PM 44.6 °F 42.2 °F 42.8 °F 93% 30.18 in 1.9 mi SE 4.6 mph - N/A   Mostly Cloudy
1:00 PM 44 °F - 42 °F 90% 30.20 in 2 mi SE 4.5 mph - -   Mist
1:20 PM 44.6 °F 42.2 °F 42.8 °F 93% 30.18 in 1.9 mi SE 4.6 mph - N/A   Mostly Cloudy
1:50 PM 44.6 °F 41.4 °F 41.0 °F 87% 30.18 in 2.2 mi SE 5.8 mph - N/A   Scattered Clouds
2:20 PM 44.6 °F 41.4 °F 41.0 °F 87% 30.18 in - SE 5.8 mph - N/A   Scattered Clouds
2:50 PM 44.6 °F 41.4 °F 41.0 °F 87% 30.15 in 2.8 mi ESE 5.8 mph - N/A   Partly Cloudy
3:20 PM 42.8 °F 39.3 °F 41.0 °F 93% 30.18 in - East 5.8 mph - N/A   Mist
3:50 PM 42.8 °F 38.6 °F 41.0 °F 93% 30.15 in - East 6.9 mph - N/A   Mist
4:00 PM 42 °F - 40 °F 90% 30.18 in 2 mi East 6.7 mph - -   Mist
4:20 PM 39.2 °F 35.0 °F 39.2 °F 100% 30.18 in - East 5.8 mph - N/A   Mist
4:50 PM 37.4 °F 32.1 °F 37.4 °F 100% 30.15 in 1.6 mi East 6.9 mph - N/A   Mist
5:20 PM 39.2 °F 34.2 °F 37.4 °F 93% 30.15 in - ESE 6.9 mph - N/A   Mist
5:50 PM 39.2 °F 35.0 °F 37.4 °F 93% 30.15 in - ESE 5.8 mph - N/A   Scattered Clouds
6:20 PM 37.4 °F 32.8 °F 35.6 °F 93% 30.15 in 1.7 mi ESE 5.8 mph - N/A   Mostly Cloudy
6:50 PM 37.4 °F 32.8 °F 35.6 °F 93% 30.15 in 1.7 mi ESE 5.8 mph - N/A   Partly Cloudy
7:00 PM 37 °F - 35 °F 92% 30.17 in 2 mi ESE 6.7 mph - -   Mist
7:20 PM 37.4 °F 32.8 °F 35.6 °F 93% 30.15 in - ESE 5.8 mph - N/A   Partly Cloudy
7:50 PM 37.4 °F 32.8 °F 35.6 °F 93% 30.15 in 1.9 mi ESE 5.8 mph - N/A   Mist
8:20 PM 35.6 °F 30.7 °F 33.8 °F 93% 30.15 in 1.9 mi ESE 5.8 mph - N/A   Mist
8:50 PM 37.4 °F 30.8 °F 37.4 °F 100% 30.12 in 3.7 mi ESE 9.2 mph - N/A   Unknown
9:20 PM 39.2 °F 34.2 °F 37.4 °F 93% 30.12 in 3.7 mi SE 6.9 mph - N/A   Unknown
9:50 PM 37.4 °F 32.1 °F 35.6 °F 93% 30.12 in 5.0 mi ESE 6.9 mph - N/A   Unknown
10:00 PM 37 °F - 35 °F 91% 30.14 in 5 mi ESE 6.7 mph - -   Overcast
10:20 PM 37.4 °F 32.1 °F 33.8 °F 87% 30.12 in 5.0 mi ESE 6.9 mph - N/A   Unknown
10:50 PM 35.6 °F 29.9 °F 33.8 °F 93% 30.12 in 4.3 mi ESE 6.9 mph - N/A   Unknown
11:20 PM 35.6 °F 29.9 °F 33.8 °F 93% 30.09 in 4.3 mi ESE 6.9 mph - N/A   Unknown
11:50 PM 37.4 °F 32.1 °F 33.8 °F 87% 30.09 in 3.7 mi ESE 6.9 mph - N/A   Unknown